Time,TemperatureF,DewpointF,PressureIn,WindDirection,WindDirectionDegrees,WindSpeedMPH,WindSpeedGustMPH,Humidity,HourlyPrecipIn,Conditions,Clouds,dailyrainin,SolarRadiationWatts/m^2,SoftwareType,DateUTC
2013-05-21 00:03:00,58.0,58.0,-100.00,SW,233,1.0,4.0,99,0.00,,,-99.99,0.000000,,2013-05-21 04:03:00,
2013-05-21 00:13:00,58.0,58.0,-100.00,SW,233,1.0,4.0,99,0.00,,,-99.99,0.000000,,2013-05-21 04:13:00,
2013-05-21 00:42:00,58.0,58.0,-100.00,West,260,1.0,3.0,100,0.00,,,0.00,0.000000,,2013-05-21 04:42:00,
2013-05-21 00:53:00,58.0,58.0,-100.00,West,260,1.0,3.0,100,0.00,,,0.00,0.000000,,2013-05-21 04:53:00,
2013-05-21 01:02:00,58.0,58.0,-100.00,West,260,1.0,3.0,100,0.00,,,0.00,0.000000,,2013-05-21 05:02:00,
2013-05-21 01:12:00,58.0,58.0,-100.00,West,260,1.0,3.0,100,0.00,,,0.00,0.000000,,2013-05-21 05:12:00,
2013-05-21 01:32:00,56.0,56.0,-100.00,NE,34,1.0,4.0,100,0.00,,,0.00,0.000000,,2013-05-21 05:32:00,
2013-05-21 01:42:00,56.0,56.0,-100.00,NE,34,1.0,4.0,100,0.00,,,0.00,0.000000,,2013-05-21 05:42:00,
2013-05-21 01:52:00,56.0,56.0,-100.00,NE,34,1.0,4.0,100,0.00,,,0.00,0.000000,,2013-05-21 05:52:00,
2013-05-21 02:02:00,56.0,56.0,-100.00,NE,34,1.0,4.0,100,0.00,,,0.00,0.000000,,2013-05-21 06:02:00,
2013-05-21 02:12:00,56.0,56.0,-100.00,NE,34,1.0,4.0,100,0.00,,,0.00,0.000000,,2013-05-21 06:12:00,
2013-05-21 02:32:00,56.0,56.0,-100.00,NNW,332,1.0,4.0,100,0.00,,,0.00,0.000000,,2013-05-21 06:32:00,
2013-05-21 02:42:00,56.0,56.0,-100.00,NNW,332,1.0,4.0,100,0.00,,,0.00,0.000000,,2013-05-21 06:42:00,
2013-05-21 02:52:00,56.0,56.0,-100.00,NNW,332,1.0,4.0,100,0.00,,,0.00,0.000000,,2013-05-21 06:52:00,
2013-05-21 03:01:00,56.0,56.0,-100.00,NNW,332,1.0,4.0,100,0.00,,,0.00,0.000000,,2013-05-21 07:01:00,
2013-05-21 03:11:00,56.0,56.0,-100.00,NNW,332,1.0,4.0,100,0.00,,,0.00,0.000000,,2013-05-21 07:11:00,
2013-05-21 03:42:00,56.0,56.0,-100.00,NE,34,1.0,3.0,100,0.00,,,0.00,0.000000,,2013-05-21 07:42:00,
2013-05-21 03:52:00,56.0,56.0,-100.00,NE,34,1.0,3.0,100,0.00,,,0.00,0.000000,,2013-05-21 07:52:00,
2013-05-21 04:02:00,56.0,56.0,-100.00,NE,34,1.0,3.0,100,0.00,,,0.00,0.000000,,2013-05-21 08:02:00,
2013-05-21 04:11:00,56.0,56.0,-100.00,NE,34,1.0,3.0,100,0.00,,,0.00,0.000000,,2013-05-21 08:11:00,
2013-05-21 05:33:00,55.0,55.0,-100.00,NE,38,2.0,5.0,100,-99.99,,,0.00,1.000000,,2013-05-21 09:33:00,
2013-05-21 05:42:00,55.0,55.0,-100.00,NE,38,2.0,5.0,100,-99.99,,,0.00,1.000000,,2013-05-21 09:42:00,
2013-05-21 05:53:00,55.0,55.0,-100.00,NE,38,2.0,5.0,100,-99.99,,,0.00,1.000000,,2013-05-21 09:53:00,
2013-05-21 06:03:00,55.0,55.0,-100.00,NE,38,2.0,5.0,100,-99.99,,,0.00,1.000000,,2013-05-21 10:03:00,
2013-05-21 06:12:00,55.0,55.0,-100.00,NE,38,2.0,5.0,100,-99.99,,,0.00,1.000000,,2013-05-21 10:12:00,
2013-05-21 06:33:00,61.0,61.0,-100.00,SSE,153,4.0,8.0,100,0.00,,,0.00,13.000000,,2013-05-21 10:33:00,
2013-05-21 06:42:00,61.0,61.0,-100.00,SSE,153,4.0,8.0,100,0.00,,,0.00,13.000000,,2013-05-21 10:42:00,
2013-05-21 06:52:00,61.0,61.0,-100.00,SSE,153,4.0,8.0,100,0.00,,,0.00,13.000000,,2013-05-21 10:52:00,
2013-05-21 07:02:00,61.0,61.0,-100.00,SSE,153,4.0,8.0,100,0.00,,,0.00,13.000000,,2013-05-21 11:02:00,
2013-05-21 07:12:00,61.0,61.0,-100.00,SSE,153,4.0,8.0,100,0.00,,,0.00,13.000000,,2013-05-21 11:12:00,
2013-05-21 07:42:00,65.0,65.0,-100.00,ENE,57,2.0,10.0,100,0.00,,,0.00,103.000000,,2013-05-21 11:42:00,
2013-05-21 07:52:00,65.0,65.0,-100.00,ENE,57,2.0,10.0,100,0.00,,,0.00,103.000000,,2013-05-21 11:52:00,
2013-05-21 08:01:00,65.0,65.0,-100.00,ENE,57,2.0,10.0,100,0.00,,,0.00,103.000000,,2013-05-21 12:01:00,
2013-05-21 08:11:00,65.0,65.0,-100.00,ENE,57,2.0,10.0,100,0.00,,,0.00,103.000000,,2013-05-21 12:11:00,
2013-05-21 08:42:00,70.0,67.0,-100.00,WSW,245,4.0,9.0,91,0.00,,,0.00,145.000000,,2013-05-21 12:42:00,
2013-05-21 08:52:00,70.0,67.0,-100.00,WSW,245,4.0,9.0,91,0.00,,,0.00,145.000000,,2013-05-21 12:52:00,
2013-05-21 09:01:00,70.0,67.0,-100.00,WSW,245,4.0,9.0,91,0.00,,,0.00,145.000000,,2013-05-21 13:01:00,
2013-05-21 09:12:00,70.0,67.0,-100.00,WSW,245,4.0,9.0,91,0.00,,,0.00,145.000000,,2013-05-21 13:12:00,
2013-05-21 09:42:00,74.0,67.0,-100.00,West,270,3.0,7.0,78,0.00,,,0.00,208.000000,,2013-05-21 13:42:00,
2013-05-21 09:52:00,74.0,67.0,-100.00,West,270,3.0,7.0,78,0.00,,,0.00,208.000000,,2013-05-21 13:52:00,
2013-05-21 10:02:00,74.0,67.0,-100.00,West,270,3.0,7.0,78,0.00,,,0.00,208.000000,,2013-05-21 14:02:00,
2013-05-21 10:11:00,74.0,67.0,-100.00,West,270,3.0,7.0,78,0.00,,,0.00,208.000000,,2013-05-21 14:11:00,
2013-05-21 10:42:00,75.0,65.0,-100.00,WSW,240,3.0,14.0,71,0.00,,,0.00,279.000000,,2013-05-21 14:42:00,
2013-05-21 10:52:00,75.0,65.0,-100.00,WSW,240,3.0,14.0,71,0.00,,,0.00,279.000000,,2013-05-21 14:52:00,
2013-05-21 11:01:00,75.0,65.0,-100.00,WSW,240,3.0,14.0,71,0.00,,,0.00,279.000000,,2013-05-21 15:01:00,
2013-05-21 11:11:00,75.0,65.0,-100.00,WSW,240,3.0,14.0,71,0.00,,,0.00,279.000000,,2013-05-21 15:11:00,
2013-05-21 11:42:00,80.0,66.0,-100.00,NW,305,6.0,11.0,63,0.00,,,0.00,499.000000,,2013-05-21 15:42:00,
2013-05-21 11:53:00,80.0,66.0,-100.00,NW,305,6.0,11.0,63,0.00,,,0.00,499.000000,,2013-05-21 15:53:00,
2013-05-21 12:03:00,80.0,66.0,-100.00,NW,305,6.0,11.0,63,0.00,,,0.00,499.000000,,2013-05-21 16:03:00,
2013-05-21 12:13:00,80.0,66.0,-100.00,NW,305,6.0,11.0,63,0.00,,,0.00,499.000000,,2013-05-21 16:13:00,
2013-05-21 12:32:00,82.0,65.0,-100.00,West,260,6.0,11.0,56,0.00,,,0.00,752.000000,,2013-05-21 16:32:00,
2013-05-21 12:42:00,82.0,65.0,-100.00,West,260,6.0,11.0,56,0.00,,,0.00,752.000000,,2013-05-21 16:42:00,
2013-05-21 12:53:00,82.0,65.0,-100.00,West,260,6.0,11.0,56,0.00,,,0.00,752.000000,,2013-05-21 16:53:00,
2013-05-21 13:02:00,82.0,65.0,-100.00,West,260,6.0,11.0,56,0.00,,,0.00,752.000000,,2013-05-21 17:02:00,
2013-05-21 13:12:00,82.0,65.0,-100.00,West,260,6.0,11.0,56,0.00,,,0.00,752.000000,,2013-05-21 17:12:00,
2013-05-21 13:44:00,82.0,61.0,-100.00,WNW,297,5.0,13.0,50,0.00,,,0.00,803.000000,,2013-05-21 17:44:00,
2013-05-21 13:52:00,82.0,61.0,-100.00,WNW,297,5.0,13.0,50,0.00,,,0.00,803.000000,,2013-05-21 17:52:00,
2013-05-21 14:02:00,82.0,61.0,-100.00,WNW,297,5.0,13.0,50,0.00,,,0.00,803.000000,,2013-05-21 18:02:00,
2013-05-21 14:12:00,82.0,61.0,-100.00,WNW,297,5.0,13.0,50,0.00,,,0.00,803.000000,,2013-05-21 18:12:00,
2013-05-21 14:32:00,83.0,64.0,-100.00,SSE,147,3.0,9.0,52,0.00,,,0.00,555.000000,,2013-05-21 18:32:00,
2013-05-21 14:42:00,83.0,64.0,-100.00,SSE,147,3.0,9.0,52,0.00,,,0.00,555.000000,,2013-05-21 18:42:00,
2013-05-21 14:52:00,83.0,64.0,-100.00,SSE,147,3.0,9.0,52,0.00,,,0.00,555.000000,,2013-05-21 18:52:00,
2013-05-21 15:02:00,83.0,64.0,-100.00,SSE,147,3.0,9.0,52,0.00,,,0.00,555.000000,,2013-05-21 19:02:00,
2013-05-21 15:11:00,83.0,64.0,-100.00,SSE,147,3.0,9.0,52,0.00,,,0.00,555.000000,,2013-05-21 19:11:00,
2013-05-21 15:32:00,86.0,64.0,-100.00,North,359,3.0,10.0,48,0.00,,,0.00,813.000000,,2013-05-21 19:32:00,
2013-05-21 15:42:00,86.0,64.0,-100.00,North,359,3.0,10.0,48,0.00,,,0.00,813.000000,,2013-05-21 19:42:00,
2013-05-21 15:52:00,86.0,64.0,-100.00,North,359,3.0,10.0,48,0.00,,,0.00,813.000000,,2013-05-21 19:52:00,
2013-05-21 16:03:00,86.0,64.0,-100.00,North,359,3.0,10.0,48,0.00,,,0.00,813.000000,,2013-05-21 20:03:00,
2013-05-21 16:11:00,86.0,64.0,-100.00,North,359,3.0,10.0,48,0.00,,,0.00,813.000000,,2013-05-21 20:11:00,
2013-05-21 16:33:00,86.0,62.0,-100.00,NE,37,3.0,10.0,45,0.00,,,0.00,677.000000,,2013-05-21 20:33:00,
2013-05-21 16:42:00,86.0,62.0,-100.00,NE,37,3.0,10.0,45,0.00,,,0.00,677.000000,,2013-05-21 20:42:00,
2013-05-21 16:52:00,86.0,62.0,-100.00,NE,37,3.0,10.0,45,0.00,,,0.00,677.000000,,2013-05-21 20:52:00,
2013-05-21 17:02:00,86.0,62.0,-100.00,NE,37,3.0,10.0,45,0.00,,,0.00,677.000000,,2013-05-21 21:02:00,
2013-05-21 17:11:00,86.0,62.0,-100.00,NE,37,3.0,10.0,45,0.00,,,0.00,677.000000,,2013-05-21 21:11:00,
2013-05-21 17:33:00,81.0,64.0,-100.00,NNW,334,6.0,12.0,57,0.00,,,-99.99,390.000000,,2013-05-21 21:33:00,
2013-05-21 17:44:00,81.0,64.0,-100.00,NNW,334,6.0,12.0,57,0.00,,,-99.99,390.000000,,2013-05-21 21:44:00,
2013-05-21 17:54:00,81.0,64.0,-100.00,NNW,334,6.0,12.0,57,0.00,,,-99.99,390.000000,,2013-05-21 21:54:00,
2013-05-21 18:02:00,81.0,64.0,-100.00,NNW,334,6.0,12.0,57,0.00,,,-99.99,390.000000,,2013-05-21 22:02:00,
2013-05-21 18:12:00,81.0,64.0,-100.00,NNW,334,6.0,12.0,57,0.00,,,-99.99,390.000000,,2013-05-21 22:12:00,
2013-05-21 18:33:00,78.0,65.0,-100.00,NNE,29,3.0,13.0,64,0.00,,,0.00,310.000000,,2013-05-21 22:33:00,
2013-05-21 18:42:00,78.0,65.0,-100.00,NNE,29,3.0,13.0,64,0.00,,,0.00,310.000000,,2013-05-21 22:42:00,
2013-05-21 18:53:00,78.0,65.0,-100.00,NNE,29,3.0,13.0,64,0.00,,,0.00,310.000000,,2013-05-21 22:53:00,
2013-05-21 19:02:00,78.0,65.0,-100.00,NNE,29,3.0,13.0,64,0.00,,,0.00,310.000000,,2013-05-21 23:02:00,
2013-05-21 19:12:00,78.0,65.0,-100.00,NNE,29,3.0,13.0,64,0.00,,,0.00,310.000000,,2013-05-21 23:12:00,
2013-05-21 19:32:00,73.0,61.0,-100.00,North,352,2.0,7.0,67,0.00,,,0.00,138.000000,,2013-05-21 23:32:00,
2013-05-21 19:42:00,73.0,61.0,-100.00,North,352,2.0,7.0,67,0.00,,,0.00,138.000000,,2013-05-21 23:42:00,
2013-05-21 19:52:00,73.0,61.0,-100.00,North,352,2.0,7.0,67,0.00,,,0.00,138.000000,,2013-05-21 23:52:00,
2013-05-21 20:01:00,73.0,61.0,-100.00,North,352,2.0,7.0,67,0.00,,,0.00,138.000000,,2013-05-22 00:01:00,
2013-05-21 20:11:00,73.0,61.0,-100.00,North,352,2.0,7.0,67,0.00,,,0.00,138.000000,,2013-05-22 00:11:00,
2013-05-21 21:32:00,64.0,60.0,-100.00,North,4,3.0,24.0,86,-99.99,,,0.26,1.000000,,2013-05-22 01:32:00,
2013-05-21 21:42:00,64.0,60.0,-100.00,North,4,3.0,24.0,86,-99.99,,,0.26,1.000000,,2013-05-22 01:42:00,
2013-05-21 21:52:00,64.0,60.0,-100.00,North,4,3.0,24.0,86,-99.99,,,0.26,1.000000,,2013-05-22 01:52:00,
2013-05-21 22:02:00,64.0,60.0,-100.00,North,4,3.0,24.0,86,-99.99,,,0.26,1.000000,,2013-05-22 02:02:00,
2013-05-21 22:12:00,64.0,60.0,-100.00,North,4,3.0,24.0,86,-99.99,,,0.26,1.000000,,2013-05-22 02:12:00,
2013-05-21 22:32:00,61.0,58.0,-100.00,East,98,6.0,16.0,90,0.26,,,0.52,0.000000,,2013-05-22 02:32:00,
2013-05-21 22:42:00,61.0,58.0,-100.00,East,98,6.0,16.0,90,0.26,,,0.52,0.000000,,2013-05-22 02:42:00,
2013-05-21 22:52:00,61.0,58.0,-100.00,East,98,6.0,16.0,90,0.26,,,0.52,0.000000,,2013-05-22 02:52:00,
2013-05-21 23:01:00,61.0,58.0,-100.00,East,98,6.0,16.0,90,0.26,,,0.52,0.000000,,2013-05-22 03:01:00,
2013-05-21 23:11:00,61.0,58.0,-100.00,East,98,6.0,16.0,90,0.26,,,0.52,0.000000,,2013-05-22 03:11:00,
2013-05-21 23:33:00,59.0,56.0,-100.00,SSW,208,7.0,24.0,90,0.46,,,0.98,0.000000,,2013-05-22 03:33:00,
2013-05-21 23:43:00,59.0,56.0,-100.00,SSW,208,7.0,24.0,90,0.46,,,0.98,0.000000,,2013-05-22 03:43:00,
2013-05-21 23:53:00,59.0,56.0,-100.00,SSW,208,7.0,24.0,90,0.46,,,0.98,0.000000,,2013-05-22 03:53:00,